FW7296 Weather Reports


time (UTC)temp
F
wind
direction
speed
knots
gust
knots
rain 1hr
in
rain 24hr
in
rain mn
in
humidity
%
barometer
mb
20260505073106 52 0 0.0 0.0 0.00 0.00 0.00 91 1013.2
20260505071553 53 0 0.0 0.0 0.00 0.00 0.00 89 1012.9
20260505070055 54 0 0.0 1.7 0.00 0.00 0.00 88 1012.8
20260505064602 54 148 0.0 2.6 0.00 0.00 0.00 90 1012.7
20260505063056 54 0 0.0 0.0 0.00 0.00 0.00 88 1012.5
20260505061555 55 0 0.0 0.9 0.00 0.00 0.00 85 1012.3
20260505054604 57 221 0.0 1.7 0.00 0.00 0.00 83 1012.1
20260505053110 58 0 0.0 0.9 0.00 0.00 0.00 80 1011.9
20260505051558 59 288 0.0 1.7 0.00 0.00 0.00 79 1011.9
20260505041612 63 145 1.7 6.1 0.00 0.00 0.00 72 1011.1
20260505040057 64 189 2.6 4.3 0.00 0.00 0.00 71 1011.1
20260505034553 65 174 2.6 5.2 0.00 0.00 0.00 69 1010.8
20260505033054 66 0 0.0 5.2 0.00 0.00 0.00 67 1010.6
20260505031605 67 0 0.9 3.5 0.00 0.00 0.00 65 1010.3
20260505030052 69 293 1.7 4.3 0.00 0.00 0.00 63 1010.1
20260505024555 70 259 1.7 7.8 0.00 0.00 0.00 61 1009.9
20260505023102 72 0 0.9 4.3 0.00 0.00 0.00 57 1009.7
20260505021555 74 199 1.7 5.2 0.00 0.00 0.00 55 1009.6
20260505020052 75 237 0.9 5.2 0.00 0.00 0.00 54 1009.4
20260505014551 76 228 1.7 5.2 0.00 0.00 0.00 54 1009.4
20260505013059 76 233 2.6 7.8 0.00 0.00 0.00 53 1009.4
20260505011557 77 240 2.6 9.6 0.00 0.00 0.00 53 1009.4
20260505010056 78 350 1.7 7.0 0.00 0.00 0.00 53 1009.4
20260505004555 79 254 2.6 6.1 0.00 0.00 0.00 51 1009.3
20260505003058 79 228 2.6 5.2 0.00 0.00 0.00 51 1009.3
20260505001555 80 250 1.7 6.1 0.00 0.00 0.00 53 1009.2
20260505000107 79 233 1.7 7.0 0.00 0.00 0.00 50 1009.1
20260504234617 80 4 0.9 5.2 0.00 0.00 0.00 49 1009.2
20260504233057 80 310 2.6 8.7 0.00 0.00 0.00 49 1009.3
20260504231603 80 23 0.9 7.0 0.00 0.00 0.00 48 1009.4
20260504230057 80 347 2.6 5.2 0.00 0.00 0.00 48 1009.6
20260504224556 80 15 2.6 9.6 0.00 0.00 0.00 49 1009.5
20260504223058 80 295 1.7 7.0 0.00 0.00 0.00 50 1009.6
20260504221600 80 313 3.5 8.7 0.00 0.00 0.00 51 1009.8
20260504220058 79 23 3.5 7.8 0.00 0.00 0.00 51 1009.9
20260504214554 79 237 3.5 9.6 0.00 0.00 0.00 49 1010.0
20260504213053 79 333 1.7 8.7 0.00 0.00 0.00 48 1010.0
20260504211557 80 19 2.6 7.8 0.00 0.00 0.00 47 1010.1
20260504210108 79 208 0.9 8.7 0.00 0.00 0.00 46 1010.1
20260504204602 79 2 1.7 6.1 0.00 0.00 0.00 47 1010.3
20260504203054 78 347 1.7 12.2 0.00 0.00 0.00 46 1010.3
20260504201602 78 265 1.7 7.0 0.00 0.00 0.00 53 1010.4
20260504200100 77 335 2.6 5.2 0.00 0.00 0.00 47 1010.5
20260504194608 76 13 2.6 7.8 0.00 0.00 0.00 52 1010.5
20260504193053 76 65 2.6 7.8 0.00 0.00 0.00 51 1010.7
20260504191554 75 8 3.5 6.1 0.00 0.00 0.00 52 1010.8
20260504190117 74 307 2.6 7.8 0.00 0.00 0.00 56 1010.9
20260504184558 74 335 3.5 7.8 0.00 0.00 0.00 54 1011.1
20260504183058 74 27 2.6 7.8 0.00 0.00 0.00 57 1011.0
20260504181603 73 18 0.9 5.2 0.00 0.00 0.00 58 1011.0
20260504180144 72 65 1.7 5.2 0.00 0.00 0.00 61 1011.1
20260504174553 71 83 2.6 5.2 0.00 0.00 0.00 62 1011.2
20260504173111 71 32 0.9 4.3 0.00 0.00 0.00 63 1011.3
20260504171553 70 15 1.7 5.2 0.00 0.00 0.00 65 1011.3
20260504140113 52 218 0.0 2.6 0.00 0.00 0.00 89 1010.4
20260504120114 49 134 0.0 0.9 0.00 0.00 0.00 96 1009.8
20260504081558 54 157 0.0 0.9 0.00 0.00 0.00 91 1009.7